Home > Weather > Eisenstadt > Past weeks

Flag for Austria Past Weather in Eisenstadt, Burgenland, Austria — Yesterday and Last 2 Weeks

Now
73 °F

Mild.


Feels Like: 71 °F
Forecast: 70 / 90 °F
Wind: 2 mph from North

Location: Eisenstadt

Current Time: Jun 25, 2016 at 1:53:25 AM

Latest Report: Jun 25, 2016 at 1:00 AM


Visibility: N/A

Pressure: 29.95 "Hg

Humidity: 87%

Dew Point: 69 °F

Location of EisenstadtLocation

Past Weather in Eisenstadt — Graph

°F

Eisenstadt Temperature Yesterday

Maximum temperature yesterday: 91 °F (at 4:00 PM)
Minimum temperature yesterday: 67 °F (at 5:00 AM)
Average temperature yesterday: 79 °F

High & Low Weather Summary for the Past Weeks

 TemperatureHumidityPressure
High91 °F (Jun 24, 4:00 PM)94% (Jun 21, 6:00 AM)30.26 "Hg (Jun 21, 6:00 AM)
Low55 °F (Jun 21, 6:00 AM)34% (Jun 23, 5:00 PM)29.47 "Hg (Jun 17, 5:00 AM)
Average68 °F70%29.89 "Hg
* Reported Jun 10 12:00 AM — Jun 25 12:00 AM, Eisenstadt, Weather by CustomWeather, © 2016

Note: Actual official high and low records may vary slightly from our data, if they occured in-between our weather recording intervals... More about our weather records

Advertising

Eisenstadt Weather History for the Previous 24 Hours

Scroll right to see more
 ConditionsComfort  
Time TempWeatherWind HumidityBarometerVisibility
12:00 AM
Sat, Jun 25
74 °FMild.3 mph85%29.96 "HgN/A
11:00 PM
Fri, Jun 24
74 °FClear.3 mph84%29.97 "Hg12 mi
10:00 PM76 °FMild.3 mph81%29.97 "HgN/A
9:00 PM79 °FWarm.2 mph75%29.95 "HgN/A
8:00 PM87 °FSunny.3 mph55%29.94 "Hg14 mi
7:00 PM89 °FSunny.5 mph49%29.94 "Hg14 mi
6:00 PM90 °FHot.6 mph44%29.94 "HgN/A
5:00 PM90 °FSunny.6 mph45%29.96 "Hg14 mi
4:00 PM91 °FHot.6 mph43%29.98 "HgN/A
3:00 PM90 °FHot.7 mph42%30.00 "HgN/A
2:00 PM90 °FSunny.7 mph43%30.01 "Hg14 mi
1:00 PM90 °FHot.6 mph45%30.02 "HgN/A
12:00 PM88 °FHot.6 mph47%30.04 "HgN/A
11:00 AM86 °FSunny.7 mph52%30.05 "Hg12 mi
10:00 AM82 °FWarm.6 mph62%30.05 "HgN/A
9:00 AM78 °FWarm.5 mph69%30.07 "HgN/A
8:00 AM74 °FSunny.2 mph76%30.08 "Hg12 mi
7:00 AM72 °FSunny.3 mph81%30.08 "Hg12 mi
6:00 AM68 °FSunny.2 mph91%30.09 "Hg12 mi
5:00 AM67 °FSunny.2 mph91%30.10 "Hg12 mi
4:00 AM67 °FClear.2 mph89%30.10 "Hg12 mi
3:00 AM68 °FMild.3 mph88%30.10 "HgN/A
2:00 AM68 °FClear.3 mph87%30.11 "Hg12 mi
1:00 AM69 °FMild.3 mph84%30.13 "HgN/A
Weather by CustomWeather, © 2016

See weather overviewHow to use our weather pages